Lapse_Rate
5.9 5.8 5.9 5.8 5.8 5.7 5.7 5.6 5.4 5.6 5.6 5.5 5.7 5.9 6.3 6.2 6.1 6.3 6.7 7.1 7.0 7.7 8.5 8.0 8.1 8.5 8.5 8.3 8.2 8.1 8.0 8.0 7.9 7.9 8.1 7.7 7.5 8.1 8.2 8.1 8.0 8.1 8.1 8.2
6.1 6.1 6.0 6.0 5.9 5.9 5.9 5.8 5.8 5.7 5.7 5.5 5.5 5.5 6.1 6.4 6.1 6.0 6.3 6.4 6.8 7.1 7.3 8.7 8.4 8.1 8.2 8.5 8.2 8.1 8.1 8.1 7.9 7.8 8.1 8.1 8.0 8.1 8.3 7.8 8.0 8.1 8.1 8.0
6.4 6.5 6.4 6.2 6.3 6.3 6.3 6.1 5.7 5.3 5.3 5.4 5.3 4.8 5.2 5.8 6.1 6.0 5.8 5.9 6.2 6.5 7.0 7.2 7.6 8.2 8.1 8.7 8.5 8.4 8.2 8.2 8.1 8.2 7.8 7.8 7.9 8.2 8.0 8.0 8.3 8.3 8.1 7.7
6.8 6.8 6.6 6.5 6.5 6.5 6.4 6.3 5.7 5.4 5.3 4.9 5.4 4.2 4.7 5.0 5.4 5.8 6.1 6.2 6.1 6.2 6.3 6.7 7.2 7.5 7.8 8.0 8.2 8.5 8.2 8.2 7.8 8.1 7.7 7.8 8.1 8.3 8.2 8.2 8.3 8.3 8.1 7.9
7.1 7.0 6.8 6.9 7.0 6.8 6.6 6.4 6.2 6.1 6.0 5.6 5.2 5.3 4.6 5.1 5.1 5.6 6.3 6.2 6.1 6.0 6.3 6.4 6.6 7.1 7.5 7.5 7.8 8.3 8.2 8.2 7.9 7.6 7.7 7.6 7.8 8.0 8.0 8.1 8.2 8.4 8.2 7.9
7.2 7.2 7.1 7.0 6.8 6.7 6.6 6.5 6.3 6.2 6.1 4.6 6.2 6.6 4.5 5.2 5.6 5.6 5.7 5.7 5.5 5.4 5.5 6.2 6.5 6.7 7.2 7.4 7.4 7.8 8.1 8.1 8.3 7.7 7.3 7.5 8.1 8.0 7.7 8.3 8.5 8.2 8.2 8.2
7.4 7.4 7.3 7.3 7.3 7.1 6.9 7.0 5.9 5.7 5.5 5.5 7.0 6.8 4.7 5.5 6.2 6.1 5.8 5.7 5.9 5.3 5.1 5.6 6.3 6.7 7.0 7.4 7.5 7.7 7.7 8.0 7.9 8.0 7.6 7.3 7.7 7.9 7.8 8.0 8.2 8.0 8.1 8.2
6.9 7.1 7.5 7.5 7.3 6.6 6.6 6.9 6.7 6.0 6.3 6.6 7.2 6.6 5.5 6.7 7.1 7.2 6.4 5.8 5.6 5.3 5.1 4.9 5.3 5.9 6.9 7.3 7.5 7.6 7.9 7.7 8.0 8.1 7.9 7.6 7.7 7.8 7.6 7.7 7.8 7.9 8.1 7.9
6.7 6.7 6.9 7.3 7.1 6.8 6.7 6.8 7.1 7.5 7.5 6.8 7.7 7.7 7.7 8.0 7.9 7.9 7.6 7.0 6.4 5.8 5.6 5.4 5.1 5.2 5.8 6.7 7.6 7.6 7.7 7.7 7.6 7.9 8.0 7.7 7.8 7.6 7.5 7.6 7.6 7.6 7.6 7.5
6.6 6.1 6.7 6.9 6.8 6.9 6.8 6.7 6.9 7.3 6.0 6.7 7.3 7.9 7.9 8.1 8.3 7.9 7.7 7.9 7.7 7.5 6.3 6.0 5.9 5.4 5.3 5.9 7.3 7.7 7.7 7.8 7.7 7.8 7.9 7.8 8.0 7.6 7.4 7.1 7.3 7.4 7.1 7.1
6.6 6.3 6.6 6.7 6.6 6.5 6.8 6.8 7.2 7.3 7.7 7.4 6.9 7.3 7.8 8.1 8.0 7.7 7.7 7.6 7.6 7.8 7.1 6.0 6.3 5.9 5.3 5.5 6.9 7.4 7.8 7.9 7.8 7.8 7.8 7.9 7.6 7.3 7.3 7.1 7.0 6.9 7.1 6.7
6.5 6.2 6.1 6.6 6.9 6.7 7.0 7.4 7.3 7.3 7.3 7.4 7.2 6.7 7.8 7.9 7.7 7.5 7.4 7.4 7.4 6.7 7.1 7.6 7.3 6.1 5.5 5.8 6.5 7.1 7.6 7.9 7.8 7.7 8.1 7.7 7.5 7.3 6.9 7.0 7.0 7.1 6.9 6.5
6.2 5.9 5.9 6.5 6.8 6.6 6.9 7.1 7.3 7.3 7.1 6.8 7.1 6.9 7.8 7.7 7.5 7.3 7.2 7.1 6.7 5.9 6.2 6.8 7.0 6.9 5.8 6.2 7.0 7.2 7.5 7.8 7.8 7.6 7.8 7.6 7.3 7.1 7.0 7.1 7.1 7.0 6.7 6.7
6.2 6.0 6.1 6.0 6.5 6.2 6.3 6.9 6.9 6.9 6.5 7.0 7.0 7.1 7.7 7.6 7.2 7.4 7.0 6.8 6.3 5.9 6.2 6.6 7.0 7.5 6.9 6.9 6.7 7.4 7.6 7.9 7.8 7.7 7.6 7.6 7.2 7.1 7.1 7.2 7.2 7.0 7.1 7.1
6.3 6.1 6.2 6.0 6.3 6.2 6.6 6.7 7.2 6.6 6.6 6.5 7.2 7.0 7.3 7.1 7.0 7.1 6.9 6.5 6.2 6.3 6.6 6.8 7.3 7.4 7.4 7.6 7.0 6.5 7.0 7.1 7.0 7.3 7.5 7.3 7.4 7.3 7.3 7.2 7.2 7.4 7.3 7.0
6.1 6.0 5.9 5.8 6.6 6.6 6.5 6.9 7.1 7.2 7.1 7.0 7.4 7.3 7.4 7.1 6.8 6.8 6.9 6.4 5.9 6.0 6.1 5.5 4.8 5.9 6.8 7.1 7.3 6.7 6.8 6.7 6.7 7.0 7.2 7.2 7.3 7.4 7.3 7.3 7.7 7.5 7.2 6.9
5.9 5.7 5.7 5.6 6.6 6.6 6.9 7.8 7.4 7.6 7.7 7.5 7.2 7.5 7.2 7.1 6.6 6.9 7.3 6.4 5.6 6.0 6.0 4.9 5.2 6.5 6.9 6.7 6.8 6.9 6.9 6.8 7.1 7.6 7.6 7.5 7.4 7.3 7.3 7.7 7.3 7.3 7.2 6.9
6.0 6.0 6.0 6.2 6.6 6.0 7.6 7.7 7.6 7.4 7.5 7.3 7.1 7.1 6.9 6.7 6.8 7.3 6.9 6.2 5.9 5.9 5.3 4.4 5.2 6.3 6.9 6.9 6.9 7.0 7.0 6.9 7.5 7.4 7.2 7.0 7.2 6.9 7.4 7.6 7.3 7.3 7.1 6.9
7.0 6.4 6.3 6.4 5.9 6.9 7.2 7.8 7.8 7.4 7.7 7.5 7.7 7.3 7.1 7.0 6.8 7.3 6.6 6.2 6.0 6.0 6.0 5.8 5.6 5.6 6.1 6.7 7.1 6.8 6.7 6.8 7.2 6.8 6.9 6.9 6.7 7.1 7.5 7.5 7.6 7.1 7.0 6.9
6.7 6.5 6.5 6.6 6.5 5.6 7.4 7.6 7.4 7.2 7.0 7.7 7.2 6.9 6.6 6.5 6.6 7.1 6.5 6.4 6.6 6.5 5.8 6.0 5.6 5.7 5.7 6.2 6.5 6.7 6.9 6.9 6.8 6.7 6.8 6.8 7.0 7.3 7.5 7.4 7.4 7.0 6.7 6.7
6.8 6.5 6.6 6.6 6.6 6.6 7.6 7.3 7.0 6.7 7.1 6.8 6.8 6.6 6.5 6.2 6.4 6.2 6.1 6.3 6.8 6.8 6.2 6.1 6.3 6.0 5.5 5.9 6.4 6.5 7.0 7.2 6.8 6.6 6.5 6.5 6.9 7.2 7.2 7.1 6.9 6.9 6.8 6.4
6.8 6.8 6.6 6.6 6.6 6.6 6.8 6.9 6.7 7.0 6.6 6.4 6.6 6.5 6.4 6.5 6.3 5.7 5.5 6.0 6.7 6.7 6.6 5.9 5.8 5.8 5.7 6.0 5.9 6.3 6.7 7.0 6.2 6.3 5.9 6.3 6.6 7.0 7.0 6.9 6.9 6.6 6.4 6.2
6.5 6.7 6.4 6.5 6.5 7.1 7.2 7.0 6.9 6.5 6.6 6.5 6.4 6.4 6.2 6.1 6.1 4.9 5.1 5.4 6.1 6.3 6.2 6.2 6.1 6.0 5.6 5.6 5.8 6.1 6.1 5.2 4.7 5.7 6.4 6.6 6.7 6.8 6.9 6.9 6.8 6.6 6.0 5.9
6.7 6.6 5.9 6.3 7.3 6.9 6.5 6.7 6.6 6.7 6.5 6.5 6.6 6.2 6.2 6.0 5.7 4.7 4.7 5.0 5.6 5.9 5.7 5.9 5.8 5.9 5.7 5.9 6.1 6.4 5.4 4.4 5.7 6.6 6.1 6.2 6.6 6.9 6.8 6.6 6.2 5.8 5.9 6.0
6.4 6.3 6.5 6.6 7.0 6.3 6.9 6.6 6.4 6.3 6.3 6.4 6.3 6.0 5.2 4.8 4.6 4.4 4.5 5.0 5.3 5.6 5.3 5.9 5.6 5.7 5.8 5.8 5.4 6.2 5.3 5.7 6.3 5.9 5.9 6.0 6.1 6.0 6.3 6.0 5.8 5.8 5.8 5.7
6.7 6.0 5.6 5.9 6.3 6.4 6.4 6.5 6.3 6.2 6.2 6.0 5.2 5.0 4.9 4.3 4.6 4.4 4.7 5.1 5.3 5.6 5.3 5.3 5.7 5.8 5.4 6.1 5.4 5.6 6.0 6.3 6.0 5.9 5.9 5.4 5.2 5.6 5.6 5.7 5.8 5.9 5.9 5.6
Wind_Speed
3 4 2 5 7 6 2 3 5 6 6 7 11 18 14 7 5 7 8 10 9 16 15 6 7 8 6 8 9 9 8 9 8 8 7 5 8 8 6 7 10 10 9 10
6 2 6 4 4 4 3 2 4 6 6 10 9 23 18 12 6 7 7 8 10 9 12 21 12 7 8 6 11 10 10 10 7 7 8 5 8 4 7 6 6 8 8 8
3 6 6 3 4 5 2 3 4 7 7 8 8 22 9 4 4 5 6 6 6 8 11 13 15 13 10 10 8 12 13 14 13 15 3 1 3 2 3 3 4 6 7 9
4 4 1 6 4 3 3 4 5 9 6 3 3 12 6 3 8 6 7 8 10 11 9 10 17 17 15 14 13 9 12 13 13 15 9 9 10 12 7 4 3 5 8 8
9 4 5 3 4 5 7 6 6 6 6 3 4 5 3 7 7 9 8 8 7 7 10 13 13 16 19 16 13 9 11 11 13 14 17 12 7 5 2 2 6 5 5 8
7 3 4 6 5 5 3 3 4 3 2 2 9 7 17 4 4 4 4 5 6 10 13 14 13 13 15 16 15 11 12 14 14 12 16 18 19 11 5 5 5 4 4 6
4 2 1 2 1 5 6 5 4 4 2 5 2 3 15 12 10 5 3 8 9 9 11 14 13 13 16 17 18 10 10 14 15 15 16 18 17 16 13 9 5 6 4 3
1 5 0 2 3 5 5 7 4 5 4 10 10 6 7 4 5 4 5 9 10 11 12 13 15 13 17 17 19 18 14 15 16 17 18 17 17 9 7 8 5 6 6 6
1 5 3 8 2 4 4 4 4 2 2 1 5 8 9 10 7 5 8 8 10 14 17 17 14 18 16 16 20 21 17 16 15 18 17 15 12 8 10 9 7 5 6 6
3 6 8 3 1 6 6 3 3 2 3 5 5 6 8 8 10 7 12 11 13 17 19 20 17 16 15 17 20 24 22 19 17 18 17 13 13 12 8 8 9 9 7 8
2 4 4 3 4 5 3 2 1 3 3 3 4 5 6 8 8 12 10 9 12 19 22 21 21 17 14 17 19 20 15 17 14 10 9 10 10 10 9 9 8 10 10 10
3 3 4 8 13 7 6 5 4 3 5 4 3 12 7 8 9 10 9 10 13 18 23 23 19 16 16 20 19 15 9 11 12 10 11 8 8 9 9 9 10 10 11 11
3 1 4 6 3 4 2 3 4 2 2 8 6 10 5 7 11 11 8 8 12 23 29 19 12 12 19 22 20 14 7 14 11 11 8 9 10 10 11 10 10 10 11 11
5 6 8 9 9 4 12 15 11 7 5 8 12 23 21 18 13 13 7 7 12 21 13 14 19 19 17 19 13 12 7 6 8 11 12 11 11 11 10 10 11 12 11 12
8 6 6 9 14 16 20 21 20 18 17 13 20 21 21 12 11 12 6 7 12 23 14 17 24 24 18 17 13 14 4 3 6 10 11 11 11 10 10 11 11 11 12 10
3 3 3 12 17 20 19 18 18 19 20 19 17 19 9 5 5 5 9 12 12 15 20 13 19 19 18 17 9 7 7 5 6 8 11 12 12 12 11 11 12 12 11 10
4 2 5 9 3 10 10 7 6 5 9 9 9 11 3 6 8 7 13 13 8 13 17 18 18 18 19 17 12 9 5 1 9 11 10 11 12 12 13 14 14 12 12 10
8 5 4 3 3 4 5 4 4 7 8 8 7 8 6 7 9 9 12 3 10 12 16 17 15 15 19 16 12 12 5 2 6 10 12 13 14 14 13 13 12 8 7 10
14 9 3 3 4 6 8 5 2 2 14 4 7 7 7 9 8 7 3 3 10 14 14 13 13 13 14 15 12 10 7 8 3 10 12 13 14 15 13 13 12 9 9 7
8 9 4 2 3 5 6 3 3 3 8 5 6 9 12 10 13 10 6 10 14 13 11 11 14 11 9 13 12 8 2 4 9 8 13 13 15 15 13 11 11 5 8 6
3 2 9 8 5 7 6 4 4 2 7 3 4 13 15 15 13 17 13 14 13 12 11 12 14 11 10 11 12 10 2 3 2 5 12 13 14 14 12 10 8 7 8 8
5 4 3 3 5 6 4 4 5 8 4 5 11 18 20 21 19 13 10 13 18 15 13 12 11 10 11 11 9 3 5 3 5 13 13 13 12 11 9 12 8 10 10 10
2 4 2 5 5 6 5 13 12 6 16 15 13 15 16 18 17 13 10 15 15 12 12 13 12 12 11 9 10 5 2 4 7 10 11 14 12 11 11 12 9 8 8 8
4 2 4 6 6 10 8 13 9 14 11 15 16 13 13 16 12 13 14 16 12 10 13 12 12 11 12 8 6 9 6 7 14 7 11 11 11 9 9 8 7 8 7 7
8 6 5 6 10 10 11 13 15 17 17 18 16 14 15 12 13 17 18 16 16 15 12 11 11 10 12 8 7 1 4 4 5 6 10 9 9 10 8 6 4 6 4 8
3 5 3 13 15 14 17 19 20 19 18 11 9 13 16 17 20 16 14 16 16 17 11 11 10 11 10 7 9 4 3 6 2 6 10 10 8 8 7 7 5 15 9 4
Wind_Direction
1 70 219 235 206 237 261 274 263 275 289 324 300 301 305 277 256 280 288 290 292 302 310 323 308 303 217 264 277 223 192 213 201 195 197 202 208 212 215 212 197 187 186 183
15 298 239 273 275 189 174 187 279 270 342 311 301 290 294 291 258 237 256 281 291 300 314 321 329 317 307 237 228 251 230 216 186 211 228 216 199 199 217 198 187 197 181 173
155 253 323 325 315 355 356 265 259 277 295 254 279 279 265 277 279 272 270 269 290 284 295 301 309 312 306 303 236 230 227 226 209 200 151 61 63 87 156 189 196 207 182 179
229 264 302 311 269 116 312 254 285 307 336 297 44 289 187 219 261 279 288 269 266 278 304 311 311 305 300 292 295 235 220 218 213 196 187 211 209 208 218 190 133 185 195 181
237 210 282 263 227 177 236 249 264 270 270 300 207 264 157 314 283 261 273 298 330 328 315 308 307 306 301 294 286 278 250 233 224 204 197 202 198 229 138 140 169 190 187 183
252 237 191 209 221 205 290 314 316 329 75 259 217 196 284 222 260 320 282 306 308 307 303 298 295 299 298 297 281 269 260 242 225 209 206 200 207 192 163 177 182 183 178 175
327 248 345 104 322 352 54 51 322 327 332 229 299 304 262 298 296 237 260 278 279 271 278 289 296 303 303 296 293 263 246 246 232 214 209 211 211 202 197 187 175 166 155 169
275 317 182 108 181 221 242 169 169 262 256 280 293 236 261 237 214 229 239 263 275 287 288 286 290 289 290 287 292 278 246 229 223 214 212 209 207 195 188 177 170 184 185 174
271 271 300 298 303 127 261 220 208 209 279 358 235 270 299 273 247 292 293 296 299 306 309 301 297 295 290 286 290 280 254 230 216 209 211 202 186 162 185 179 166 166 168 167
217 284 241 261 21 272 176 190 274 4 290 266 274 267 246 276 280 308 298 299 311 312 306 301 296 288 286 292 288 285 252 232 215 204 202 194 181 189 165 151 171 173 165 158
166 182 284 20 218 206 306 304 190 160 179 246 282 247 224 266 270 268 273 298 303 314 307 301 297 288 285 300 290 277 244 217 209 188 188 169 170 160 152 165 174 174 163 161
200 161 272 247 273 236 226 236 180 139 264 241 257 275 251 241 253 272 271 285 317 330 312 302 294 277 302 312 298 286 225 204 200 181 166 160 142 146 158 174 175 161 166 166
187 244 304 312 358 2 122 188 198 188 286 233 254 266 234 261 285 267 254 275 321 338 309 299 281 301 339 313 303 279 218 218 191 167 156 153 153 157 175 171 159 160 160 159
267 192 220 249 261 233 282 270 252 217 242 255 242 273 287 288 281 283 245 270 309 332 302 325 333 336 321 307 325 303 245 183 170 158 160 155 159 167 163 151 154 161 157 147
164 218 206 243 264 274 271 273 272 256 247 247 270 269 279 285 293 301 283 289 318 321 346 352 343 321 310 324 331 337 240 161 157 149 147 155 148 142 143 150 152 141 147 143
177 262 255 280 274 267 278 274 263 255 256 260 262 263 257 284 303 309 300 313 306 306 331 344 282 297 338 327 308 319 360 145 142 146 144 137 141 144 144 142 136 138 135 144
179 193 297 278 307 315 280 246 248 241 232 236 252 262 279 296 297 322 313 307 316 334 322 311 303 321 331 325 328 307 319 228 145 139 140 140 139 143 144 135 140 141 139 135
208 199 209 279 25 243 245 237 257 264 249 242 279 278 249 261 278 304 281 312 331 325 303 310 320 328 322 321 331 321 351 144 152 146 145 150 145 139 129 130 123 121 131 139
209 202 237 226 215 287 289 316 203 352 295 220 232 260 254 295 305 285 216 324 314 310 304 306 306 308 309 314 332 348 343 38 164 161 154 153 145 134 136 130 135 134 130 128
166 206 209 173 243 238 234 247 49 65 279 240 231 269 283 339 305 298 309 320 312 317 309 301 309 315 303 308 307 327 294 44 357 187 164 160 144 140 134 136 131 126 131 122
150 184 232 251 265 278 253 149 81 244 256 309 291 293 285 288 270 293 306 303 308 307 309 311 316 318 304 309 318 314 255 173 319 254 159 153 145 133 132 127 128 126 118 113
182 199 209 211 229 264 145 81 208 256 264 270 273 274 280 283 286 285 288 301 315 315 320 312 308 319 314 313 326 293 289 90 273 313 162 131 132 131 131 124 125 125 125 122
304 196 248 213 231 240 227 265 277 250 275 279 271 261 263 271 275 286 295 302 305 310 306 317 317 316 313 313 345 356 354 247 281 264 149 126 122 127 127 126 126 122 128 130
294 263 247 329 269 269 284 286 299 289 261 276 269 256 271 270 278 284 291 292 292 303 302 312 308 307 301 320 332 306 170 241 287 180 129 119 122 123 126 126 134 137 139 140
255 321 260 255 282 305 271 295 288 288 290 287 277 273 268 270 275 279 284 285 290 297 303 297 295 286 292 314 327 290 25 231 326 174 123 121 126 125 106 76 98 142 126 152
208 221 253 290 307 290 281 292 292 294 292 297 296 292 282 278 276 277 283 286 291 289 287 281 283 280 291 300 333 281 167 315 4 154 138 136 129 132 126 127 100 48 48 78